TimeAEST,TemperatureF,Dew PointF,Humidity,Sea Level PressureIn,VisibilityMPH,Wind Direction,Wind SpeedMPH,Gust SpeedMPH,PrecipitationIn,Events,Conditions,WindDirDegrees,DateUTC
12:00 AM,70,67,88,29.94,,Calm,Calm,,,,,,2013-12-22 14:00:00
12:00 AM,69.8,68.0,94,29.92,6.2,Calm,Calm,-,N/A,,Scattered Clouds,0,2013-12-22 14:00:00
1:00 AM,71.6,66.2,83,29.92,6.2,SSW,3.5,-,N/A,,Scattered Clouds,210,2013-12-22 15:00:00
2:00 AM,69.8,66.2,88,29.89,6.2,SSW,5.8,-,N/A,,Unknown,210,2013-12-22 16:00:00
3:00 AM,69,67,89,29.90,,SW,3.5,,,,,230,2013-12-22 17:00:00
3:00 AM,69.8,66.2,88,29.89,6.2,SW,3.5,-,N/A,,Mostly Cloudy,230,2013-12-22 17:00:00
4:00 AM,69.8,68.0,94,29.89,6.2,Calm,Calm,-,N/A,,Mostly Cloudy,0,2013-12-22 18:00:00
5:00 AM,69.8,68.0,94,29.89,6.2,SSW,5.8,-,N/A,,Mostly Cloudy,210,2013-12-22 19:00:00
6:00 AM,71,69,91,29.93,,SSW,5.8,,,,Overcast,200,2013-12-22 20:00:00
6:00 AM,71.6,69.8,94,29.92,6.2,SSW,5.8,-,N/A,,Mostly Cloudy,200,2013-12-22 20:00:00
7:00 AM,77.0,68.0,74,29.95,6.2,SSW,6.9,-,N/A,,Unknown,200,2013-12-22 21:00:00
8:00 AM,78.8,68.0,69,29.95,6.2,East,3.5,-,N/A,,Mostly Cloudy,90,2013-12-22 22:00:00
9:00 AM,83,64,43,29.95,,ESE,12.7,,,,,120,2013-12-22 23:00:00
9:00 AM,84.2,64.4,51,29.95,6.2,ESE,12.7,-,N/A,,Scattered Clouds,110,2013-12-22 23:00:00
10:00 AM,86.0,62.6,45,29.95,6.2,ESE,13.8,-,N/A,,Mostly Cloudy,110,2013-12-23 00:00:00
11:00 AM,86.0,62.6,45,29.92,6.2,ESE,12.7,-,N/A,,Unknown,120,2013-12-23 01:00:00
12:00 PM,86,62,35,29.93,,SE,13.8,,,,,130,2013-12-23 02:00:00
12:00 PM,87.8,64.4,46,29.92,6.2,ESE,13.8,-,N/A,,Unknown,120,2013-12-23 02:00:00
1:00 PM,87.8,62.6,43,29.89,6.2,ESE,13.8,-,N/A,,Unknown,110,2013-12-23 03:00:00
2:00 PM,87.8,62.6,43,29.89,6.2,ESE,15.0,-,N/A,,Unknown,110,2013-12-23 04:00:00
3:00 PM,87,66,40,29.88,,ESE,13.8,,,,,110,2013-12-23 05:00:00
3:00 PM,87.8,66.2,49,29.86,6.2,ESE,15.0,-,N/A,,Unknown,120,2013-12-23 05:00:00
4:00 PM,86.0,64.4,48,29.86,6.2,East,12.7,-,N/A,,Unknown,100,2013-12-23 06:00:00
5:00 PM,84.2,66.2,55,29.89,6.2,ESE,15.0,-,N/A,,Unknown,120,2013-12-23 07:00:00
6:00 PM,81,66,51,29.90,,ESE,12.7,,,,,120,2013-12-23 08:00:00
6:00 PM,80.6,66.2,61,29.89,6.2,ESE,12.7,-,N/A,,Unknown,120,2013-12-23 08:00:00
7:00 PM,78.8,66.2,65,29.92,6.2,East,8.1,-,N/A,,Unknown,90,2013-12-23 09:00:00
8:00 PM,75.2,66.2,73,29.92,6.2,East,3.5,-,N/A,,Unknown,90,2013-12-23 10:00:00
9:00 PM,73,66,73,29.94,,ESE,1.2,,,,,110,2013-12-23 11:00:00
9:00 PM,73.4,66.2,78,29.95,6.2,ESE,2.3,-,N/A,,Unknown,120,2013-12-23 11:00:00
10:00 PM,71.6,66.2,83,29.95,6.2,Calm,Calm,-,N/A,,Unknown,0,2013-12-23 12:00:00
11:00 PM,69.8,66.2,88,29.95,6.2,Calm,Calm,-,N/A,,Scattered Clouds,0,2013-12-23 13:00:00